Flag for U.S.A. Weather past 2 weeks in Pembroke Pines, Florida, U.S.A.

Now
79 °F

Partly cloudy.


Feels Like: 82 °F
Forecast: 73 / 84 °F
Wind: No wind

Location: North Perry Airport

Current Time: Sep 19, 2014 at 2:23:07 AM

Latest Report: Sep 19, 2014 at 1:53 AM


Visibility: 10 mi

Pressure: 29.93 "Hg

Humidity: 82%

Dew point: 73 °F

Location of Pembroke PinesLocation

Historic Weather in Pembroke Pines — Graph

°F

Pembroke Pines temperature yesterday

Maximum temperature yesterday: 88 °F (at 3:53 PM)
Minimum temperature yesterday: 76 °F (at 6:53 AM)
Average temperature yesterday: 82 °F

Past Weeks' High & Low Weather Summary

 TemperatureHumidityPressure
High92 °F (Sep 5, 12:53 PM)100% (Sep 13, 3:53 AM)30.17 "Hg (Sep 13, 3:53 AM)
Low73 °F (Sep 13, 3:53 AM)50% (Sep 17, 2:53 PM)29.88 "Hg (Sep 18, 5:53 PM)
Average82 °F78%30.03 "Hg
* Reported Sep 4 12:53 AM — Sep 19 12:53 AM, Pembroke Pines, Weather by CustomWeather, © 2014

Note: Actual official high and low records may vary slightly from our data, if they occured in-between our weather recording intervals... More about our weather records

Advertising

Pembroke Pines weather history for previous 24 hours

 ConditionsComfort  
Time TempWeatherWind HumidityBarometerVisibility
12:53 AM
Sep 19
78 °FClear.3 mph84%29.94 "Hg10 mi
11:53 PM
Sep 18
78 °FClear.3 mph82%29.94 "Hg10 mi
10:53 PM79 °FPassing clouds.No wind88%29.95 "Hg10 mi
9:53 PM78 °FPassing clouds.No wind90%29.94 "Hg10 mi
8:53 PM78 °FMostly cloudy.8 mph84%29.93 "Hg10 mi
7:53 PM81 °FThundershowers. Mostly cloudy.17 mph77%29.91 "Hg10 mi
6:53 PM86 °FBroken clouds.9 mph63%29.88 "Hg10 mi
6:03 PM87 °FThundershowers. Partly sunny.8 mph61%29.88 "Hg10 mi
5:53 PM87 °FPartly sunny.7 mph61%29.88 "Hg10 mi
4:53 PM85 °FPartly sunny.8 mph70%29.88 "Hg10 mi
3:53 PM88 °FThundershowers. Partly sunny.5 mph63%29.89 "Hg10 mi
2:53 PM86 °FMostly cloudy.13 mph67%29.90 "Hg10 mi
1:53 PM87 °FBroken clouds.9 mph61%29.91 "Hg10 mi
12:53 PM87 °FPassing clouds.N/A65%29.94 "Hg10 mi
11:53 AM85 °FScattered clouds.7 mph72%29.95 "Hg10 mi
10:53 AM83 °FCloudy.6 mph74%29.96 "Hg10 mi
9:53 AM81 °FSunny.No wind74%29.96 "Hg10 mi
8:53 AM81 °FSunny.No wind77%29.95 "Hg10 mi
7:53 AM78 °FClear.No wind84%29.93 "Hg10 mi
6:53 AM76 °FClear.No wind85%29.92 "Hg10 mi
5:53 AM78 °FClear.No wind79%29.90 "Hg10 mi
4:53 AM77 °FClear.No wind88%29.89 "Hg10 mi
3:53 AM77 °FPassing clouds.3 mph88%29.90 "Hg10 mi
2:53 AM78 °FOvercast.3 mph82%29.91 "Hg10 mi
Weather by CustomWeather, © 2014

See weather overviewHow to use our weather pages